User: anonymous   Login
Location: Unspecified
(0.0000°N, 0.0000°E)
Time: 07:11:45
(UTC+02:00)
Language:

Meteor 1-31 Rocket - Orbit

View from above orbital plane
View from above orbital plane
View from above satellite
View from above satellite

Ground track
Ground track

The orbit data is extracted from the following two-line orbital elements,

1 12586U 81065B   14295.14341552  .00006093  00000-0  41302-3 0  5029
2 12586 097.4101 289.1354 0018975 288.7925 071.1244 15.06662970810379
Epoch (UTC): 22 October 2014 03:26:31
Eccentricity: 0.0018975
inclination: 97.4101°
perigee height: 533 km
apogee height: 559 km
right ascension of ascending node: 289.1354°
argument of perigee: 288.7925°
revolutions per day: 15.06662970
mean anomaly at epoch: 71.1244°
orbit number at epoch: 81037

The dashed part of the orbit path shows where the satellite is in the earth's shadow,  

DLR